Regional Weather Roundup
Issued by NWS

Home | Current Version | Previous Version | Text Only | Print | Product List | Glossary On
Versions: 1 2 3 4 5 6 7 8 9 10 11 12 13 14 15 16 17 18 19 20 21 22 23 24 25 26 27 28 29 30 31 32 33 34 35 36 37 38 39 40 41 42 43 44 45 46 47 48 49 50
000
ASUS44 KOUN 192210
RWROK

WEATHER ROUNDUP FOR OKLAHOMA
NATIONAL WEATHER SERVICE NORMAN OK
500 PM CDT SAT APR 19 2014

NOTE: "FAIR" INDICATES FEW OR NO CLOUDS BELOW 12,000 FEET WITH NO
      SIGNIFICANT WEATHER AND/OR OBSTRUCTIONS TO VISIBILITY.

OKZ001>007-009>012-014-015-017-192300-
NORTHWEST OKLAHOMA AND THE PANHANDLE

CITY           SKY/WX    TMP DP  RH WIND       PRES   REMARKS
GAGE           SUNNY     78  47  33 S23G32    29.99F
ENID/VANCE AFB CLOUDY    76  53  45 S17       30.03F
ENID/WOODRING  PTSUNNY   77  50  38 S20       30.03F
$$

OKZ016-021>023-033>039-044-045-192300-
SOUTHWEST OKLAHOMA

CITY           SKY/WX    TMP DP  RH WIND       PRES   REMARKS
LAWTON/REGL    CLOUDY    77  51  40 S16       30.05F
LAWTON/FT SILL CLOUDY    77  52  41 S15       30.04F
FREDERICK      CLOUDY    79  51  37 S13       30.01F
CLINTON        MOSUNNY   78  50  37 S24G32    30.05F
HOBART         PTSUNNY   79  50  36 S20G28    30.04F
ALTUS AFB      CLOUDY    81  51  36 SE18      30.03F
$$

OKZ018>020-024>031-192300-
CENTRAL OKLAHOMA

CITY           SKY/WX    TMP DP  RH WIND       PRES   REMARKS
OKLAHOMA CITY  CLOUDY    78  49  35 SE18G24   30.07F
OKC/WILEY POST CLOUDY    76  47  35 S16       30.07F
OKC/TINKER AFB PTSUNNY   76  50  41 S13       30.08F
STILLWATER     PTSUNNY   78  47  33 S18       30.05F
GUTHRIE        CLOUDY    78  49  35 S14       30.06F
$$

OKZ008-013-054>072-192300-
NORTHEAST OKLAHOMA

CITY           SKY/WX    TMP DP  RH WIND       PRES   REMARKS
TULSA          MOSUNNY   78  48  34 S13G20    30.07F
TULSA/JONES    SUNNY     81  46  29 SE10G17   30.08F
PONCA CITY     PTSUNNY   82  46  28 S12G21    30.03F
BARTLESVILLE   SUNNY     79  46  31 SE16G24   30.07F
MUSKOGEE       SUNNY     78  49  35 SE9       30.10F
$$

OKZ032-040>043-046>053-073>077-192300-
SOUTH CENTRAL/SOUTHEAST OKLAHOMA

CITY           SKY/WX    TMP DP  RH WIND       PRES   REMARKS
ARDMORE/DWNTWN   N/A     73  46  38 S8        30.09F
MCALESTER      SUNNY     78  47  33 VRB7      30.10F
$$




USA.gov is the U.S. government's official web portal to all federal, state and local government web resources and services.